GW1476 Weather Reports


time (UTC)temp
C
wind
direction
speed
KPH
gust
KPH
rain 1hr
cm
rain 24hr
cm
rain mn
cm
humidity
%
barometer
mb
20260906175930 27 158 0.0 4.8 0.00 0.00 0.00 85 1016.9
20260906175026 27 203 1.6 8.0 0.00 0.00 0.00 86 1016.9
20260906174553 26 23 6.4 11.3 0.00 0.00 0.00 88 1016.9
20260906174137 26 45 9.7 11.3 0.00 0.00 0.00 88 1016.9
20260906173652 26 23 9.7 9.7 0.00 0.00 0.00 87 1016.9
20260906172735 26 23 0.0 3.2 0.00 0.00 0.00 88 1017.2
20260906172301 26 23 3.2 6.4 0.00 0.00 0.00 89 1017.2
20260906171846 26 23 8.0 8.0 0.00 0.00 0.00 90 1017.2
20260906171430 25 90 0.0 6.4 0.00 0.00 0.00 91 1017.2
20260906170022 26 23 3.2 4.8 0.00 0.00 0.00 90 1017.2
20260906165551 26 0 6.4 6.4 0.00 0.00 0.00 90 1017.6
20260906165120 25 45 1.6 6.4 0.00 0.00 0.00 92 1017.6
20260906164701 25 23 6.4 6.4 0.00 0.00 0.00 92 1017.6
20260906164245 26 23 4.8 6.4 0.00 0.00 0.00 92 1017.6
20260906163827 26 45 4.8 9.7 0.00 0.00 0.00 91 1017.6
20260906163410 25 0 4.8 9.7 0.00 0.00 0.00 92 1017.6
20260906162952 26 0 6.4 9.7 0.00 0.00 0.00 90 1017.6
20260906162536 26 338 6.4 6.4 0.00 0.00 0.00 91 1017.6
20260906162105 25 113 0.0 4.8 0.00 0.00 0.00 93 1017.6
20260906161634 25 225 0.0 6.4 0.00 0.00 0.00 94 1017.9
20260906161217 25 0 3.2 3.2 0.00 0.00 0.00 94 1017.9
20260906160759 25 23 3.2 8.0 0.00 0.00 0.00 94 1017.9
20260906160343 25 23 6.4 6.4 0.00 0.00 0.00 95 1017.9
20260906155427 25 23 8.0 9.7 0.00 0.00 0.00 95 1017.6
20260906154955 25 338 6.4 6.4 0.00 0.00 0.00 95 1017.9
20260906153050 25 0 4.8 6.4 0.00 0.00 0.00 96 1017.6
20260906152603 25 23 3.2 6.4 0.00 0.00 0.00 96 1017.6
20260906152147 25 270 0.0 0.0 0.00 0.00 0.00 96 1017.6
20260906151242 25 0 1.6 6.4 0.00 0.00 0.00 97 1017.2
20260906150353 24 0 3.2 6.4 0.00 0.00 0.00 99 1017.2
20260906145922 24 0 6.4 8.0 0.00 0.00 0.00 99 1017.2
20260906145504 24 180 3.2 3.2 0.00 0.00 0.00 99 1017.2
20260906145048 24 23 4.8 6.4 0.00 0.00 0.00 99 1017.2
20260906144631 24 45 3.2 6.4 0.00 0.00 0.00 99 1017.2
20260906144214 24 23 3.2 4.8 0.00 0.00 0.00 99 1017.2
20260906143757 24 0 6.4 8.0 0.00 0.00 0.00 99 1017.2
20260906143327 24 23 3.2 4.8 0.00 0.00 0.00 99 1017.2
20260906142911 24 270 3.2 4.8 0.00 0.00 0.00 99 1017.2
20260906142439 24 0 3.2 6.4 0.00 0.00 0.00 99 1017.2
20260906142021 24 23 6.4 6.4 0.00 0.00 0.00 99 1017.2
20260906141606 24 0 4.8 6.4 0.00 0.00 0.00 99 1017.2
20260906141148 24 338 3.2 6.4 0.00 0.00 0.00 99 1017.2
20260906140729 24 23 4.8 8.0 0.00 0.00 0.00 99 1016.9
20260906140313 24 338 6.4 6.4 0.00 0.00 0.00 99 1016.9
20260906135841 24 338 0.0 4.8 0.00 0.00 0.00 99 1016.9
20260906135423 23 23 0.0 3.2 0.00 0.00 0.00 99 1017.2
20260906135007 23 338 3.2 3.2 0.00 0.00 0.00 99 1017.2
20260906134550 23 203 0.0 0.0 0.00 0.00 0.00 99 1016.9
20260906134136 23 180 0.0 0.0 0.00 0.00 0.00 99 1017.2
20260906133719 22 0 0.0 3.2 0.00 0.00 0.00 99 1017.2
20260906133302 22 203 0.0 3.2 0.00 0.00 0.00 99 1017.2
20260906132845 22 0 3.2 4.8 0.00 0.00 0.00 99 1017.2
20260906132413 22 23 4.8 4.8 0.00 0.00 0.00 99 1017.2
20260906131525 22 338 3.2 3.2 0.00 0.00 0.00 99 1017.2
20260906131110 22 23 0.0 0.0 0.00 0.00 0.00 99 1017.2
20260906125734 22 23 0.0 6.4 0.00 0.00 0.00 99 1016.9
20260906125246 22 45 0.0 3.2 0.00 0.00 0.00 99 1016.9
20260906124828 22 0 3.2 9.7 0.00 0.00 0.00 99 1016.9
20260906123924 22 0 0.0 0.0 0.00 0.00 0.00 99 1016.9
20260906123452 22 68 0.0 0.0 0.00 0.00 0.00 99 1016.5
20260906123021 21 225 0.0 0.0 0.00 0.00 0.00 99 1016.5
20260906122604 21 225 0.0 0.0 0.00 0.00 0.00 99 1016.5
20260906122148 21 203 0.0 0.0 0.00 0.00 0.00 99 1016.5
20260906121715 21 225 0.0 0.0 0.00 0.00 0.00 99 1016.5
20260906121241 21 180 0.0 0.0 0.00 0.00 0.00 99 1016.2
20260906115853 21 203 0.0 0.0 0.00 0.00 0.00 99 1016.2
20260906115421 21 180 0.0 0.0 0.00 0.00 0.00 99 1016.2
20260906114947 21 225 0.0 0.0 0.00 0.00 0.00 99 1016.2
20260906114532 21 270 0.0 0.0 0.00 0.00 0.00 99 1016.2
20260906114117 21 23 0.0 0.0 0.00 0.00 0.00 99 1015.9
20260906113615 21 225 0.0 0.0 0.00 0.00 0.00 99 1015.9
20260906112655 21 23 0.0 0.0 0.00 0.00 0.00 99 1015.9
20260906111739 21 203 0.0 0.0 0.00 0.00 0.00 99 1015.9
20260906111323 21 248 0.0 0.0 0.00 0.00 0.00 99 1015.9
20260906110906 21 248 0.0 0.0 0.00 0.00 0.00 99 1015.9
20260906110435 21 180 0.0 0.0 0.00 0.00 0.00 99 1015.5
20260906110021 21 203 0.0 0.0 0.00 0.00 0.00 99 1015.5
20260906105120 21 248 0.0 0.0 0.00 0.00 0.00 99 1015.5
20260906104650 21 180 0.0 0.0 0.00 0.00 0.00 99 1015.5
20260906104232 21 203 0.0 0.0 0.00 0.00 0.00 99 1015.5
20260906103815 21 248 0.0 0.0 0.00 0.00 0.00 99 1015.2
20260906103359 21 23 0.0 0.0 0.00 0.00 0.00 99 1015.2
20260906102441 21 203 0.0 0.0 0.00 0.00 0.00 99 1015.2
20260906102010 21 225 0.0 0.0 0.00 0.00 0.00 99 1015.2
20260906101125 21 203 0.0 0.0 0.00 0.00 0.00 99 1015.2
20260906100223 21 225 0.0 0.0 0.00 0.00 0.00 99 1015.2
20260906095751 21 225 0.0 0.0 0.00 0.00 0.00 99 1014.9
20260906095321 21 203 0.0 0.0 0.00 0.00 0.00 99 1014.9
20260906094902 21 203 0.0 0.0 0.00 0.00 0.00 99 1014.9
20260906093946 21 203 0.0 0.0 0.00 0.00 0.00 99 1014.9
20260906093529 21 225 0.0 0.0 0.00 0.00 0.00 99 1014.9
20260906093114 21 180 0.0 0.0 0.00 0.00 0.00 99 1014.9
20260906092656 21 203 0.0 0.0 0.00 0.00 0.00 99 1014.9
20260906091340 21 203 0.0 0.0 0.00 0.00 0.00 99 1014.9
20260906090908 21 180 0.0 0.0 0.00 0.00 0.00 99 1014.9
20260906090002 21 203 0.0 0.0 0.00 0.00 0.00 99 1014.9
20260906085530 21 203 0.0 0.0 0.00 0.00 0.00 99 1014.9
20260906085113 21 203 0.0 0.0 0.00 0.00 0.00 99 1014.9
20260906084642 21 90 0.0 0.0 0.00 0.00 0.00 99 1014.9
20260906084212 21 203 0.0 0.0 0.00 0.00 0.00 99 1014.9
20260906083739 21 180 0.0 0.0 0.00 0.00 0.00 99 1014.9
20260906083323 21 180 0.0 0.0 0.00 0.00 0.00 99 1014.9
20260906082904 21 158 0.0 0.0 0.00 0.00 0.00 99 1015.2
20260906082433 21 203 0.0 0.0 0.00 0.00 0.00 99 1015.2
20260906082002 21 225 0.0 0.0 0.00 0.00 0.00 99 1015.2
20260906081515 21 315 0.0 0.0 0.00 0.00 0.00 99 1015.2
20260906081044 21 338 0.0 0.0 0.00 0.00 0.00 99 1015.2
20260906080614 21 45 0.0 0.0 0.00 0.00 0.00 99 1015.2
20260906080144 21 45 0.0 0.0 0.00 0.00 0.00 99 1014.9
20260906075726 21 225 0.0 0.0 0.00 0.00 0.00 99 1014.9
20260906074837 21 225 0.0 0.0 0.00 0.00 0.00 99 1014.9
20260906074422 21 203 0.0 0.0 0.00 0.00 0.00 99 1014.9
20260906074004 21 203 0.0 0.0 0.00 0.00 0.00 99 1014.9
20260906073533 21 203 0.0 0.0 0.00 0.00 0.00 99 1014.9
20260906073116 21 203 0.0 0.0 0.00 0.00 0.00 99 1014.9
20260906072227 21 225 0.0 0.0 0.00 0.00 0.00 99 1015.2
20260906071756 21 338 0.0 0.0 0.00 0.00 0.00 99 1015.2
20260906071340 21 0 0.0 0.0 0.00 0.00 0.00 99 1014.9
20260906070422 21 23 0.0 0.0 0.00 0.00 0.00 99 1014.9
20260906065518 21 338 0.0 0.0 0.00 0.00 0.00 99 1014.9
20260906064630 21 180 0.0 0.0 0.00 0.00 0.00 99 1014.5
20260906063725 21 315 0.0 0.0 0.00 0.00 0.00 99 1014.9
20260906063307 21 270 0.0 0.0 0.00 0.00 0.00 99 1014.9
20260906062851 21 270 0.0 0.0 0.00 0.00 0.00 99 1014.9
20260906062436 21 270 0.0 0.0 0.00 0.00 0.00 99 1014.9
20260906062002 21 225 0.0 0.0 0.00 0.00 0.00 99 1014.9
20260906061531 21 180 0.0 0.0 0.00 0.00 0.00 99 1014.9
20260906061114 21 225 0.0 0.0 0.00 0.00 0.00 99 1015.2
20260906060657 21 203 0.0 0.0 0.00 0.00 0.00 99 1015.2
20260906060242 21 203 0.0 0.0 0.00 0.00 0.00 99 1015.2
20260906055825 21 203 0.0 0.0 0.00 0.00 0.00 99 1015.2
20260906055410 21 203 0.0 0.0 0.00 0.00 0.00 99 1015.2
20260906054954 21 203 0.0 0.0 0.00 0.00 0.00 99 1015.2
20260906054053 21 225 0.0 0.0 0.00 0.00 0.00 99 1015.5
20260906053639 21 90 0.0 3.2 0.00 0.00 0.00 99 1015.5
20260906053208 21 45 0.0 0.0 0.00 0.00 0.00 99 1015.2
20260906052737 21 0 0.0 0.0 0.00 0.00 0.00 99 1015.2
20260906052306 21 0 0.0 0.0 0.00 0.00 0.00 99 1015.2
20260906051834 21 293 0.0 0.0 0.00 0.00 0.00 99 1015.2
20260906050918 21 0 0.0 0.0 0.00 0.00 0.00 99 1014.9
20260906050503 21 293 0.0 0.0 0.00 0.00 0.00 99 1014.9
20260906050033 22 225 0.0 0.0 0.00 0.00 0.00 99 1014.9
20260906045616 22 225 0.0 0.0 0.00 0.00 0.00 99 1015.2
20260906045159 22 225 0.0 0.0 0.00 0.00 0.00 99 1014.9
20260906044743 22 248 0.0 0.0 0.00 0.00 0.00 99 1014.9
20260906044312 22 180 0.0 0.0 0.00 0.00 0.00 99 1014.9
20260906043840 22 203 0.0 0.0 0.00 0.00 0.00 99 1014.9
20260906043410 22 203 0.0 0.0 0.00 0.00 0.00 99 1015.2
20260906042509 22 248 0.0 0.0 0.00 0.00 0.00 99 1015.2
20260906042054 22 338 0.0 0.0 0.00 0.00 0.00 99 1014.9
20260906041622 22 203 0.0 0.0 0.00 0.00 0.00 99 1014.9
20260906041136 22 203 0.0 0.0 0.00 0.00 0.00 99 1014.9
20260906040719 22 270 0.0 0.0 0.00 0.00 0.00 99 1014.9
20260906040302 22 270 0.0 0.0 0.00 0.00 0.00 99 1014.9
20260906035832 22 225 0.0 0.0 0.00 0.00 0.56 99 1014.9
20260906035415 22 225 0.0 0.0 0.00 0.00 0.56 99 1014.9
20260906034958 22 225 0.0 0.0 0.00 0.00 0.56 99 1014.9
20260906034545 22 270 0.0 0.0 0.00 0.00 0.56 99 1014.9
20260906033610 22 203 0.0 0.0 0.00 0.00 0.56 99 1015.2
20260906033156 22 225 0.0 0.0 0.00 0.00 0.56 99 1015.2
20260906032721 22 248 0.0 0.0 0.00 0.00 0.56 99 1015.2
20260906032250 22 270 0.0 0.0 0.00 0.00 0.56 99 1015.2
20260906031348 22 203 0.0 0.0 0.00 0.00 0.56 99 1015.5
20260906030444 22 225 0.0 0.0 0.00 0.00 0.56 99 1015.5
20260906030027 22 225 0.0 0.0 0.00 0.00 0.56 99 1015.5
20260906025556 22 270 0.0 0.0 0.00 0.00 0.56 99 1015.5
20260906025123 22 203 0.0 0.0 0.00 0.00 0.56 99 1015.5
20260906024650 22 248 0.0 0.0 0.00 0.00 0.56 99 1015.5
20260906024219 22 225 0.0 0.0 0.00 0.00 0.56 99 1015.5
20260906023746 22 203 0.0 0.0 0.00 0.00 0.56 99 1015.5
20260906022844 22 203 0.0 0.0 0.00 0.00 0.56 99 1015.5
20260906022412 22 180 0.0 0.0 0.00 0.00 0.56 99 1015.5
20260906021956 22 203 0.0 0.0 0.00 0.00 0.56 99 1015.5
20260906021526 22 225 0.0 0.0 0.00 0.00 0.56 99 1015.5
20260906021109 22 270 0.0 0.0 0.00 0.00 0.56 99 1015.5
20260906020621 22 203 0.0 0.0 0.00 0.00 0.56 99 1015.5
20260906020150 23 203 0.0 0.0 0.00 0.00 0.56 99 1015.5
20260906015301 23 203 0.0 0.0 0.00 0.00 0.56 99 1015.2
20260906014829 23 203 0.0 0.0 0.00 0.00 0.56 99 1015.2
20260906013941 23 203 0.0 0.0 0.00 0.00 0.56 99 1014.9
20260906013524 23 203 0.0 0.0 0.00 0.00 0.56 99 1014.9
20260906013051 23 203 0.0 0.0 0.00 0.00 0.56 99 1014.9
20260906011731 23 225 0.0 0.0 0.00 0.00 0.56 99 1014.9
20260906011245 23 225 0.0 0.0 0.00 0.00 0.56 99 1014.9
20260906010341 23 203 1.6 1.6 0.00 0.00 0.56 99 1014.5
20260906005924 24 225 0.0 0.0 0.00 0.00 0.56 99 1014.5
20260906005508 24 203 1.6 3.2 0.00 0.00 0.56 99 1014.5
20260906005036 24 203 0.0 3.2 0.00 0.00 0.56 99 1014.5
20260906004132 24 248 0.0 0.0 0.00 0.00 0.56 99 1014.5
20260906003714 24 203 0.0 0.0 0.00 0.00 0.56 99 1014.5
20260906003258 24 225 0.0 0.0 0.00 0.00 0.56 99 1014.5
20260906002811 24 203 3.2 3.2 0.00 0.00 0.56 99 1014.5
20260906002354 25 203 0.0 0.0 0.00 0.00 0.56 99 1014.5
20260906001937 25 203 0.0 0.0 0.00 0.00 0.56 99 1014.5
20260906001521 25 225 3.2 3.2 0.00 0.00 0.56 99 1014.5
20260906001049 25 203 0.0 0.0 0.00 0.00 0.56 99 1014.5
20260906000204 25 225 1.6 1.6 0.00 0.00 0.56 99 1014.5
20260905235744 25 203 3.2 3.2 0.00 0.00 0.56 99 1014.5
20260905235310 25 225 3.2 3.2 0.00 0.00 0.56 98 1014.5
20260905234839 25 180 3.2 3.2 0.00 0.00 0.56 98 1014.5
20260905234423 26 203 1.6 3.2 0.00 0.00 0.56 98 1014.5
20260905234007 26 203 4.8 4.8 0.00 0.00 0.56 97 1014.5
20260905233553 26 203 3.2 3.2 0.00 0.00 0.56 96 1014.9
20260905232654 26 180 4.8 4.8 0.00 0.00 0.56 95 1014.9
20260905232226 26 203 4.8 4.8 0.00 0.00 0.56 95 1014.5
20260905231756 26 180 3.2 4.8 0.00 0.00 0.56 94 1014.9
20260905230911 26 225 3.2 3.2 0.00 0.00 0.56 92 1014.9
20260905230441 27 180 1.6 3.2 0.00 0.00 0.56 92 1014.9
20260905230010 26 180 3.2 3.2 0.00 0.00 0.56 92 1014.9
20260905225055 27 180 3.2 4.8 0.00 0.00 0.56 89 1014.5
20260905224638 27 248 3.2 4.8 0.00 0.00 0.56 89 1014.5
20260905224220 27 180 4.8 4.8 0.00 0.00 0.56 87 1014.5
20260905223802 28 180 3.2 4.8 0.00 0.00 0.56 86 1014.5
20260905223333 28 180 3.2 4.8 0.00 0.00 0.56 84 1014.5
20260905222917 29 180 3.2 3.2 0.00 0.00 0.56 79 1014.5
20260905222503 30 203 3.2 3.2 0.00 0.00 0.56 75 1014.5
20260905222047 30 23 0.0 4.8 0.00 0.00 0.56 71 1014.5
20260905221632 30 0 1.6 8.0 0.00 0.00 0.56 71 1014.5
20260905220730 31 23 3.2 3.2 0.00 0.00 0.56 68 1014.5
20260905215838 31 23 3.2 4.8 0.00 0.00 0.56 69 1014.5
20260905214951 32 113 6.4 6.4 0.00 0.00 0.56 67 1014.5
20260905214521 32 0 3.2 6.4 0.00 0.00 0.56 65 1014.5
20260905214105 32 23 4.8 8.0 0.00 0.00 0.56 66 1014.5
20260905213636 32 45 8.0 8.0 0.00 0.00 0.56 65 1014.5
20260905212252 32 0 6.4 8.0 0.00 0.00 0.56 66 1014.2
20260905211407 33 45 6.4 8.0 0.00 0.00 0.56 65 1014.2
20260905210950 34 45 4.8 11.3 0.00 0.00 0.56 62 1013.8
20260905210536 34 23 6.4 9.7 0.00 0.00 0.56 61 1013.8
20260905210105 34 45 6.4 9.7 0.00 0.00 0.56 62 1013.8
20260905205617 33 23 9.7 11.3 0.00 0.00 0.56 63 1013.8
20260905204719 32 0 8.0 8.0 0.00 0.00 0.56 65 1013.8
20260905204301 33 23 9.7 9.7 0.00 0.00 0.56 63 1013.8
20260905203845 33 23 6.4 8.0 0.00 0.00 0.56 64 1013.8
20260905203430 33 0 3.2 6.4 0.00 0.00 0.56 64 1013.8
20260905203015 32 225 4.8 6.4 0.00 0.00 0.56 65 1013.8
20260905202601 32 0 6.4 6.4 0.00 0.00 0.56 64 1014.2
20260905202146 35 23 4.8 4.8 0.00 0.00 0.56 58 1014.2
20260905201732 35 23 1.6 3.2 0.00 0.00 0.56 58 1013.8
20260905201316 35 68 4.8 4.8 0.00 0.00 0.56 58 1013.8
20260905200846 36 23 4.8 4.8 0.00 0.00 0.56 56 1013.8
20260905200401 36 23 4.8 9.7 0.00 0.00 0.56 56 1014.2
20260905195946 35 23 8.0 8.0 0.00 0.00 0.56 58 1014.2
20260905195516 34 338 1.6 4.8 0.00 0.00 0.56 59 1014.2
20260905195100 35 23 3.2 9.7 0.00 0.00 0.56 58 1014.2
20260905194155 36 23 4.8 4.8 0.00 0.00 0.56 56 1014.2
20260905193708 36 45 8.0 8.0 0.00 0.00 0.56 56 1014.5
20260905193252 34 158 3.2 3.2 0.00 0.00 0.56 60 1014.5
20260905191933 36 23 3.2 8.0 0.00 0.00 0.56 56 1014.9
20260905191049 35 315 3.2 6.4 0.00 0.00 0.56 58 1014.9
20260905190617 33 45 4.8 6.4 0.00 0.00 0.56 63 1014.9
20260905185730 36 23 3.2 4.8 0.00 0.00 0.56 58 1015.2
20260905185314 36 338 4.8 8.0 0.00 0.00 0.56 57 1015.2
20260905184843 35 338 6.4 6.4 0.00 0.00 0.56 58 1015.5
20260905184429 36 23 3.2 6.4 0.00 0.00 0.56 56 1015.5
20260905183958 36 0 3.2 4.8 0.00 0.00 0.56 58 1015.5
20260905183527 34 90 3.2 8.0 0.00 0.00 0.56 63 1015.9
20260905183110 35 338 0.0 4.8 0.00 0.00 0.56 62 1015.9
20260905182652 33 180 4.8 4.8 0.00 0.00 0.56 65 1015.9
20260905182223 32 180 4.8 4.8 0.00 0.00 0.56 70 1015.9
20260905181805 32 180 3.2 3.2 0.00 0.00 0.56 70 1015.9
20260905180914 32 23 8.0 11.3 0.00 0.00 0.56 69 1015.9